Location: Alphen
(52.1351°N, 4.6549°E)
Time: 01:31:52
(UTC+00:00)

Cosmos 1908 - Pass Details

Date: 27 January 2021
Orbit: 512 x 528 km, 82.5° (Epoch: 27 February)

Event Time Altitude Azimuth Distance (km) Brightness Sun altitude
Exits shadow 04:45:19 47° 42° (NE) 691 4.0 -24.9°
Drops below altitude 10° 04:48:17 10° 17° (NNE) 1,760 6.1 -24.5°
Sets 04:50:27 0° 14° (NNE) 2,656 7.0 -24.1°
